Shelton, WA
on Friday, November 9, 2012

Friday
Previous Day Next Day
Daily Summary
 ActualAverage (KOLM)Record (KOLM)
Temperature
Mean Temperature °F 45°F  
Max Temperature 46°F 52°F 62°F (1956)
Min Temperature 26°F 38°F 23°F (1978)
Degree Days
Heating Degree Days 29 20  
Month to date heating degree days 174  
Since 1 July heating degree days 968  
Cooling Degree Days 0 0  
Month to date cooling degree days 0  
Year to date cooling degree days 106  
Moisture
Dew Point 30°F   
Average Humidity 90    
Maximum Humidity 100    
Minimum Humidity 63    
Precipitation
Precipitation 0.00 in 0.27 in 1.52 in (1961)
Month to date precipitation 2.29  
Year to date precipitation 36.20  
Wind
Wind Speed 1 mph   
Max Wind Speed 7 mph   
Max Gust Speed mph   
Visibility 10 miles   
Events     

Key: T is trace of precipitation, MM is missing value
Source: NWS Daily Summary
Time(PST)TemperatureDew PointHumidity Pressure Visibility Wind DirectionWind SpeedGust SpeedPrecipitationEvents Conditions
12:53 AM 28.0°F 27.0°F 96% 29.85 in 10.0 miles Calm Calm - N/A   Clear
1:53 AM 27.0°F 26.1°F 96% 29.86 in 10.0 miles SW 4.6 mph - N/A   Clear
2:53 AM 28.0°F 28.0°F 100% 29.86 in 10.0 miles Calm Calm - N/A   Clear
3:53 AM 27.0°F 26.1°F 96% 29.86 in 10.0 miles Calm Calm - N/A   Clear
4:53 AM 26.1°F 25.0°F 96% 29.86 in 10.0 miles Calm Calm - N/A   Clear
5:53 AM 27.0°F 25.0°F 92% 29.88 in 10.0 miles Calm Calm - N/A   Mostly Cloudy
6:53 AM 27.0°F 26.1°F 96% 29.88 in 10.0 miles Calm Calm - N/A   Partly Cloudy
7:53 AM 26.1°F 25.0°F 96% 29.90 in 10.0 miles Calm Calm - N/A   Partly Cloudy
8:53 AM 28.0°F 27.0°F 96% 29.90 in 10.0 miles Calm Calm - N/A   Scattered Clouds
9:53 AM 32.0°F 30.9°F 96% 29.90 in 10.0 miles Calm Calm - N/A   Mostly Cloudy
10:53 AM 37.0°F 36.0°F 96% 29.91 in 10.0 miles Calm Calm - N/A   Scattered Clouds
11:53 AM 41.0°F 37.0°F 86% 29.90 in 10.0 miles Calm Calm - N/A   Clear
12:53 PM 46.0°F 35.1°F 66% 29.88 in 10.0 miles SE 6.9 mph - N/A   Clear
1:53 PM 46.0°F 34.0°F 63% 29.88 in 10.0 miles Calm Calm - N/A   Partly Cloudy
2:53 PM 46.0°F 34.0°F 63% 29.88 in 10.0 miles East 6.9 mph - N/A   Mostly Cloudy
3:53 PM 45.0°F 35.1°F 68% 29.88 in 10.0 miles North 4.6 mph - N/A   Overcast
4:53 PM 39.9°F 35.1°F 83% 29.89 in 10.0 miles NW 3.5 mph - N/A   Partly Cloudy
5:53 PM 36.0°F 34.0°F 93% 29.90 in 10.0 miles Calm Calm - N/A   Clear
6:28 PM 33.8°F 32.0°F 93% 29.90 in 10.0 miles Calm Calm - N/A   Mostly Cloudy
6:53 PM 30.9°F 30.9°F 100% 29.92 in 10.0 miles Calm Calm - N/A   Scattered Clouds
7:53 PM 30.9°F 30.0°F 96% 29.93 in 10.0 miles Calm Calm - N/A   Clear
8:53 PM 30.0°F 28.9°F 96% 29.93 in 10.0 miles Calm Calm - N/A   Clear
9:53 PM 27.0°F 26.1°F 96% 29.94 in 10.0 miles Calm Calm - N/A   Clear
10:53 PM 27.0°F 26.1°F 96% 29.94 in 10.0 miles Calm Calm - N/A   Clear
11:53 PM 27.0°F 26.1°F 96% 29.96 in 10.0 miles Calm Calm - N/A   Clear
Moon Phase
Nov. 09 Nov. 13 Nov. 20 Nov. 28 Dec. 06
Sunrise:07:08 AM (PST) Moon Rise:01:55 AM (PST)11/9
Sunset:04:43 PM (PST) Moon Set:02:15 PM (PST)11/9

Copyright © 2014 The Weather Underground, Inc.